Flag for Switzerland Weather past 2 weeks in Lancy, Geneva, Switzerland

Now
59 °F

Passing clouds.


Feels Like: 59 °F
Forecast: 47 / 74 °F
Wind: 2 mph from West

Location: Geneva Cointrin Airport

Current Time: May 30, 2015 at 10:52:57 PM

Latest Report: May 30, 2015 at 10:20 PM


Visibility: N/A

Pressure: 30.07 "Hg

Humidity: 68%

Dew point: 48 °F

Location of LancyLocation

Historic Weather in Lancy — Graph

°F

Lancy temperature yesterday

Maximum temperature yesterday: 79 °F (at 3:50 PM)
Minimum temperature yesterday: 48 °F (at 2:20 AM)
Average temperature yesterday: 65 °F

Past Weeks' High & Low Weather Summary

 TemperatureHumidityPressure
High79 °F (May 18, 4:20 PM)100% (May 26, 2:50 AM)30.33 "Hg (May 26, 2:50 AM)
Low43 °F (May 28, 4:20 AM)24% (May 28, 4:50 PM)29.80 "Hg (May 18, 5:20 PM)
Average59 °F60%30.06 "Hg
* Reported May 15 9:20 PM — May 30 9:20 PM, Lancy, Weather by CustomWeather, © 2015

Note: Actual official high and low records may vary slightly from our data, if they occured in-between our weather recording intervals... More about our weather records

Advertising

Lancy weather history for previous 24 hours

 ConditionsComfort  
Time TempWeatherWind HumidityBarometerVisibility
9:20 PM
Sat, May 30
63 °FBroken clouds.3 mph56%30.04 "HgN/A
8:50 PM66 °FPartly sunny.2 mph49%30.04 "HgN/A
8:20 PM68 °FPartly sunny.2 mph43%30.04 "HgN/A
7:50 PM70 °FPartly sunny.3 mph40%30.04 "HgN/A
7:20 PM72 °FPartly sunny.7 mph38%30.04 "HgN/A
6:50 PM72 °FPartly sunny.5 mph38%30.04 "HgN/A
6:20 PM72 °FBroken clouds.6 mph38%30.04 "HgN/A
5:50 PM72 °FBroken clouds.9 mph38%30.04 "HgN/A
5:20 PM72 °FScattered clouds.9 mph41%30.04 "HgN/A
4:50 PM72 °FPartly sunny.9 mph41%30.04 "HgN/A
4:20 PM72 °FPartly sunny.7 mph33%30.04 "HgN/A
3:50 PM72 °FPartly sunny.7 mph38%30.04 "HgN/A
3:20 PM72 °FScattered clouds.9 mph38%30.04 "HgN/A
2:50 PM72 °FBroken clouds.8 mph38%30.04 "HgN/A
2:20 PM70 °FBroken clouds.10 mph40%30.04 "HgN/A
1:50 PM72 °FBroken clouds.7 mph38%30.04 "HgN/A
1:20 PM72 °FScattered clouds.3 mph36%30.04 "HgN/A
12:50 PM70 °FScattered clouds.7 mph38%30.04 "HgN/A
12:20 PM70 °FScattered clouds.10 mph40%30.04 "HgN/A
11:50 AM70 °FScattered clouds.5 mph43%30.04 "HgN/A
11:20 AM68 °FScattered clouds.3 mph43%30.04 "HgN/A
10:50 AM68 °FScattered clouds.3 mph43%30.04 "HgN/A
10:20 AM68 °FPassing clouds.5 mph43%30.04 "HgN/A
9:50 AM66 °FPassing clouds.6 mph49%30.04 "HgN/A
9:20 AM66 °FPassing clouds.2 mph49%30.04 "HgN/A
8:50 AM63 °FPassing clouds.5 mph56%30.04 "HgN/A
8:20 AM61 °FScattered clouds.5 mph63%30.04 "HgN/A
7:50 AM59 °FPassing clouds.5 mph68%30.04 "HgN/A
7:20 AM59 °FPassing clouds.6 mph68%30.04 "HgN/A
6:50 AM57 °FPassing clouds.1 mph72%30.01 "HgN/A
6:20 AM57 °FPassing clouds.1 mph67%30.01 "HgN/A
5:50 AM61 °FPassing clouds.6 mph59%30.01 "HgN/A
5:20 AM61 °FPassing clouds.10 mph59%30.01 "HgN/A
4:50 AM61 °FPassing clouds.5 mph59%30.01 "HgN/A
4:20 AM61 °FPassing clouds.3 mph59%30.01 "HgN/A
3:50 AM61 °FPassing clouds.1 mph63%30.01 "HgN/A
2:50 AM63 °FPassing clouds.5 mph59%30.01 "HgN/A
2:20 AM63 °FPassing clouds.6 mph64%30.01 "HgN/A
1:50 AM63 °FPartly cloudy.6 mph64%30.01 "HgN/A
1:20 AM63 °FPartly cloudy.2 mph64%30.01 "HgN/A
12:50 AM63 °FPartly cloudy.5 mph64%29.98 "HgN/A
11:50 PM
Fri, May 29
63 °FPassing clouds.10 mph64%29.98 "HgN/A
11:20 PM64 °FPassing clouds.17 mph64%29.95 "HgN/A
10:20 PM68 °FPassing clouds.14 mph53%29.95 "HgN/A
Weather by CustomWeather, © 2015

See weather overviewHow to use our weather pages